This is the latest recevied weather packets stored in our database for station/object W8LMG. If no packets are shown the sender has not sent any weather packets the latest 10 day(s).
| Time | Temp. | Humidity | Pressure | Rain* | Wind** | Luminosity | Snow |
|---|---|---|---|---|---|---|---|
| 1778006805 | 22.78° C | 35% | 1013.4 hPa | 0 mm | - | 432 W/m² | - |
| 1778006503 | 22.78° C | 31% | 1013.6 hPa | 0 mm | - | 374 W/m² | - |
| 1778006200 | 22.78° C | 33% | 1013.5 hPa | 0 mm | - | 390 W/m² | - |
| 1778005897 | 24.44° C | 32% | 1013.6 hPa | 0 mm | - | 409 W/m² | - |
| 1778005593 | 23.33° C | 33% | 1013.6 hPa | 0 mm | - | 530 W/m² | - |
| 1778005290 | 22.78° C | 32% | 1013.4 hPa | 0 mm | - | 587 W/m² | - |
| 1778004986 | 23.33° C | 33% | 1013.5 hPa | 0 mm | - | 559 W/m² | - |
| 1778004684 | 23.89° C | 34% | 1013.5 hPa | 0 mm | - | 552 W/m² | - |
| 1778004380 | 23.33° C | 35% | 1013.3 hPa | 0 mm | - | 582 W/m² | - |
| 1778004078 | 22.78° C | 36% | 1013.5 hPa | 0 mm | - | 524 W/m² | - |
| 1778003773 | 22.78° C | 40% | 1013.4 hPa | 0 mm | - | 519 W/m² | - |
| 1778003470 | 22.78° C | 37% | 1013.6 hPa | 0 mm | - | 566 W/m² | - |
| 1778003167 | 22.78° C | 35% | 1013.5 hPa | 0 mm | - | 583 W/m² | - |
| 1778002863 | 22.22° C | 41% | 1013.6 hPa | 0 mm | - | 494 W/m² | - |
| 1778002560 | 22.78° C | 39% | 1013.5 hPa | 0 mm | - | 384 W/m² | - |
| 1778002256 | 22.78° C | 42% | 1013.9 hPa | 0 mm | - | 326 W/m² | - |
| 1778001954 | 22.78° C | 39% | 1013.7 hPa | 0 mm | - | 346 W/m² | - |
| 1778001650 | 22.78° C | 37% | 1013.8 hPa | 0 mm | - | 446 W/m² | - |
| 1778001345 | 22.78° C | 38% | 1013.9 hPa | 0 mm | - | 207 W/m² | - |
| 1778001042 | 22.22° C | 37% | 1014 hPa | 0 mm | - | 264 W/m² | - |
| 1778000739 | 22.22° C | 38% | 1014.1 hPa | 0 mm | - | 276 W/m² | - |
| 1778000436 | 22.22° C | 42% | 1014.4 hPa | 0 mm | - | 317 W/m² | - |
| 1778000131 | 22.22° C | 38% | 1014.3 hPa | 0 mm | - | 429 W/m² | - |
| 1777999827 | 21.67° C | 38% | 1014.1 hPa | 0 mm | - | 308 W/m² | - |
| 1777999523 | 21.67° C | 40% | 1014.3 hPa | 0 mm | - | 390 W/m² | - |
* Rain latest hour (hover to see other rain measurements)
** Current wind speed in m/s (hover to see current wind gust speed)